Weather History for Du Bois, PA

Change the Weather History Date:

Monday, January 21, 2013

  Actual Average Record
Temperature  
Mean Temperature 13 °F 23 °F  
Max Temperature 18 °F 31 °F 50 °F (2006)
Min Temperature 7 °F 16 °F -22 °F (1985)
Degree Days  
Heating Degree Days 52 42  
Month to date heating degree days 749 872  
Since 1 July heating degree days 3207 3534  
Cooling Degree Days 0 0  
Month to date cooling degree days 0 0  
Year to date cooling degree days 0 0  
Moisture  
Dew Point 10 °F    
Average Humidity 73    
Maximum Humidity 84    
Minimum Humidity 61    
Precipitation  
Precipitation T in 0.10 in 0.58 in (1990)
Month to date precipitation 0.78 2.16  
Sea Level Pressure  
Sea Level Pressure 29.89 in    
Wind  
Wind Speed 11 mph (West)    
Max Wind Speed 23 mph    
Max Gust Speed 31 mph    
Visibility 4 miles    
Events Fog , Snow    
T = Trace of Precipitation, MM = Missing Value Source: NWS Daily Summary

Daily Weather History Graph

Daily Weather History Graph

Search for Another Location

Airport:

Trip Planner

Search our weather history database for the weather conditions in past years. The results will help you decide how hot, cold, wet, or windy it might be!

Date:

Astronomy

Jan. 21, 2013 Rise Set
Actual Time 7:35 AM EST 5:19 PM EST
Civil Twilight 7:05 AM EST 5:48 PM EST
Nautical Twilight 6:31 AM EST 6:22 PM EST
Astronomical Twilight 5:59 AM EST 6:55 PM EST
Moon 12:57 PM EST 3:02 AM EST
Length of Visible Light 10h 43m
Length of Day
9h 43m
Waxing Gibbous, 75% of the Moon is Illuminated
Jan 21
Waxing Gibbous
Jan 26
Full
Feb 3
Last Quarter
Feb 10
New
Feb 17
First Quarter

Hourly Weather History & Observations

Time (EST) Temp. Windchill Dew Point Humidity Pressure Visibility Wind Dir Wind Speed Gust Speed Precip Events Conditions
12:56 AM 16.0 °F 4.4 °F 8.1 °F 71% 30.06 in 10.0 mi WSW 9.2 mph - N/A   Scattered Clouds
1:56 AM 17.1 °F 5.8 °F 8.1 °F 68% 30.06 in 10.0 mi West 9.2 mph - N/A   Overcast
2:56 AM 17.1 °F 5.8 °F 8.1 °F 68% 30.06 in 10.0 mi WSW 9.2 mph - N/A   Overcast
3:56 AM 17.1 °F 5.8 °F 7.0 °F 65% 30.04 in 10.0 mi WSW 9.2 mph - N/A   Overcast
4:56 AM 18.0 °F 6.9 °F 6.1 °F 60% 30.03 in 10.0 mi West 9.2 mph - N/A   Overcast
5:56 AM 17.1 °F 5.8 °F 8.1 °F 68% 30.02 in 10.0 mi WSW 9.2 mph - N/A   Overcast
7:27 AM 17.6 °F 5.7 °F 8.6 °F 68% 29.92 in 10.0 mi WSW 10.4 mph - N/A   Overcast
7:56 AM 17.1 °F 5.8 °F 10.0 °F 74% 30.01 in 9.0 mi SW 9.2 mph - N/A   Overcast
8:56 AM 18.0 °F 5.4 °F 9.0 °F 68% 30.00 in 10.0 mi West 11.5 mph - N/A   Overcast
9:56 AM 18.0 °F 7.7 °F 10.0 °F 71% 29.99 in 4.0 mi West 8.1 mph - N/A   Haze
10:40 AM 17.6 °F 8.2 °F 12.2 °F 79% 29.89 in 2.5 mi WSW 6.9 mph - 0.00 in Snow Light Snow
10:56 AM 18.0 °F 6.9 °F 12.0 °F 78% 29.97 in 2.0 mi WSW 9.2 mph - 0.00 in   Haze
11:21 AM 17.6 °F 7.3 °F 12.2 °F 79% 29.87 in 1.2 mi West 8.1 mph - 0.00 in Snow Light Snow
11:56 AM 18.0 °F 8.7 °F 14.0 °F 84% 29.93 in 0.8 mi West 6.9 mph - 0.00 in Snow Light Snow
12:08 PM 17.6 °F 9.3 °F 14.0 °F 86% 29.83 in 1.2 mi West 5.8 mph - 0.00 in Snow Light Snow
12:18 PM 17.6 °F 8.2 °F 12.2 °F 79% 29.83 in 1.0 mi West 6.9 mph - 0.00 in Snow Light Snow
12:27 PM 17.6 °F 6.4 °F 14.0 °F 86% 29.82 in 0.8 mi West 9.2 mph - 0.00 in Snow Light Snow
12:35 PM 17.6 °F 7.3 °F 12.2 °F 79% 29.82 in 1.0 mi WSW 8.1 mph - 0.00 in Snow Light Snow
12:56 PM 18.0 °F 7.7 °F 12.9 °F 81% 29.90 in 0.8 mi West 8.1 mph - 0.00 in Snow Light Snow
1:06 PM 17.6 °F 7.3 °F 14.0 °F 86% 29.81 in 0.5 mi West 8.1 mph - 0.00 in Fog , Snow Light Snow
1:39 PM 17.6 °F 6.4 °F 12.2 °F 79% 29.80 in 0.8 mi West 9.2 mph - 0.00 in   Overcast
1:56 PM 17.1 °F 5.0 °F 12.0 °F 81% 29.89 in 1.0 mi West 10.4 mph - 0.00 in   Haze
2:23 PM 17.6 °F 5.7 °F 12.2 °F 79% 29.80 in 1.5 mi West 10.4 mph - N/A   Haze
2:37 PM 17.6 °F 5.0 °F 12.2 °F 79% 29.80 in 0.8 mi West 11.5 mph - 0.00 in Snow Light Snow
2:52 PM 17.6 °F 3.7 °F 10.4 °F 73% 29.81 in 1.8 mi West 13.8 mph - 0.00 in   Haze
2:56 PM 17.1 °F 4.3 °F 12.0 °F 81% 29.89 in 1.8 mi West 11.5 mph - 0.00 in   Haze
3:03 PM 17.6 °F 5.7 °F 12.2 °F 79% 29.80 in 2.5 mi West 10.4 mph - N/A   Haze
3:12 PM 17.6 °F 4.3 °F 12.2 °F 79% 29.81 in 5.0 mi West 12.7 mph - N/A   Haze
3:54 PM 17.6 °F 6.4 °F 12.2 °F 79% 29.81 in 2.5 mi West 9.2 mph - N/A   Haze
3:56 PM 18.0 °F 7.7 °F 12.0 °F 78% 29.90 in 2.5 mi West 8.1 mph - N/A   Haze
4:06 PM 17.6 °F 7.3 °F 12.2 °F 79% 29.81 in 1.5 mi West 8.1 mph - 0.00 in Snow Light Snow
4:17 PM 17.6 °F 7.3 °F 12.2 °F 79% 29.81 in 0.5 mi WSW 8.1 mph - 0.00 in Fog , Snow Light Snow
4:34 PM 17.6 °F 10.7 °F 14.0 °F 86% 29.81 in 0.5 mi West 4.6 mph - 0.00 in Fog , Snow Light Snow
4:56 PM 17.1 °F 5.0 °F 12.9 °F 84% 29.91 in 0.5 mi West 10.4 mph - 0.00 in Fog , Snow Light Snow
5:10 PM 17.6 °F 5.7 °F 14.0 °F 86% 29.82 in 0.2 mi WSW 10.4 mph - 0.00 in Fog , Snow Light Snow
5:26 PM 17.6 °F 2.2 °F 12.2 °F 79% 29.83 in 0.8 mi WSW 17.3 mph - 0.00 in Snow Light Snow
5:35 PM 15.8 °F -0.2 °F 12.2 °F 86% 29.84 in 0.2 mi West 17.3 mph 29.9 mph 0.00 in Fog , Snow Light Snow
5:42 PM 15.8 °F 0.9 °F 10.4 °F 79% 29.84 in 1.0 mi West 15.0 mph 23.0 mph 0.00 in Snow Light Snow
5:46 PM 15.8 °F 2.1 °F 10.4 °F 79% 29.84 in 3.0 mi West 12.7 mph 23.0 mph 0.00 in Snow Light Snow
5:56 PM 15.1 °F 1.8 °F 10.9 °F 84% 29.94 in 4.0 mi West 11.5 mph - 0.00 in   Overcast
6:56 PM 15.1 °F 0.5 °F 9.0 °F 77% 29.94 in 3.0 mi West 13.8 mph - N/A   Haze
7:20 PM 14.0 °F 1.2 °F 8.6 °F 79% 29.85 in 6.0 mi West 10.4 mph - 0.00 in   Haze
7:31 PM 14.0 °F 0.5 °F 10.4 °F 86% 29.85 in 1.8 mi West 11.5 mph - 0.00 in Snow Light Snow
7:41 PM 14.0 °F -3.0 °F 10.4 °F 86% 29.85 in 0.5 mi West 18.4 mph 27.6 mph 0.00 in Fog , Snow Snow
7:48 PM 12.2 °F -4.8 °F 10.4 °F 92% 29.85 in 0.2 mi West 17.3 mph 27.6 mph 0.00 in Fog , Snow Snow
7:56 PM 12.9 °F -2.8 °F 9.0 °F 84% 29.95 in 1.5 mi West 15.0 mph 24.2 mph 0.00 in Snow Light Snow
7:59 PM 12.2 °F -3.1 °F 8.6 °F 85% 29.85 in 3.0 mi West 13.8 mph 24.2 mph 0.00 in Snow Light Snow
8:03 PM 12.2 °F -4.8 °F 8.6 °F 85% 29.85 in 5.0 mi West 17.3 mph 24.2 mph 0.00 in   Overcast
8:13 PM 12.2 °F -5.8 °F 6.8 °F 79% 29.85 in 2.5 mi West 19.6 mph 28.8 mph 0.00 in   Haze
8:21 PM 12.2 °F -6.3 °F 5.0 °F 73% 29.86 in 4.0 mi West 20.7 mph 26.5 mph 0.00 in   Haze
8:56 PM 10.9 °F -5.9 °F 1.9 °F 67% 29.96 in 4.0 mi West 16.1 mph 26.5 mph 0.00 in   Haze
9:56 PM 10.0 °F -8.6 °F -0.9 °F 61% 29.97 in 8.0 mi West 19.6 mph 26.5 mph N/A   Clear
10:56 PM 8.1 °F -9.6 °F -2.0 °F 64% 29.97 in 10.0 mi West 16.1 mph - N/A   Clear
11:56 PM 7.0 °F -9.8 °F -2.0 °F 67% 29.97 in 10.0 mi West 13.8 mph - N/A   Clear